DJ4CK-1 Weather Reports


time (UTC)temp
F
wind
direction
speed
knots
gust
knots
rain 1hr
in
rain 24hr
in
rain mn
in
humidity
%
barometer
mb
20260505140603 73 0 0.0 0.0 0.00 0.00 0.00 37 1005.9
20260505140503 72 0 0.0 0.0 0.00 0.00 0.00 39 1005.9
20260505140403 73 0 0.0 0.0 0.00 0.00 0.00 38 1005.9
20260505140304 72 0 0.0 0.0 0.00 0.00 0.00 36 1005.9
20260505140203 72 246 0.0 0.9 0.00 0.00 0.00 36 1005.9
20260505130303 73 283 1.7 3.5 0.00 0.00 0.00 33 1006.5
20260505130203 72 294 1.7 3.5 0.00 0.00 0.00 34 1006.5
20260505130103 72 303 1.7 4.3 0.00 0.00 0.00 36 1006.5
20260505125003 73 255 0.9 3.5 0.00 0.00 0.00 31 1006.7
20260505124903 73 250 0.0 1.7 0.00 0.00 0.00 31 1006.7
20260505124803 73 254 0.9 1.7 0.00 0.00 0.00 33 1006.7
20260505124704 72 258 0.9 1.7 0.00 0.00 0.00 33 1006.7
20260505124603 72 261 0.9 1.7 0.00 0.00 0.00 32 1006.7
20260505124503 72 265 0.9 1.7 0.00 0.00 0.00 32 1006.7
20260505124403 72 273 0.9 1.7 0.00 0.00 0.00 32 1006.7
20260505124303 72 280 0.0 1.7 0.00 0.00 0.00 32 1006.7
20260505124203 72 290 0.9 4.3 0.00 0.00 0.00 31 1006.7
20260505124103 73 293 1.7 4.3 0.00 0.00 0.00 33 1006.7
20260505124004 72 296 2.6 6.1 0.00 0.00 0.00 33 1006.7
20260505123903 72 296 3.5 6.1 0.00 0.00 0.00 33 1006.7
20260505123803 72 294 4.3 7.0 0.00 0.00 0.00 34 1006.7
20260505123703 72 294 5.2 7.0 0.00 0.00 0.00 35 1006.7
20260505123604 72 292 5.2 7.0 0.00 0.00 0.00 33 1006.8
20260505123503 72 291 4.3 7.0 0.00 0.00 0.00 33 1006.8
20260505123403 72 292 4.3 7.0 0.00 0.00 0.00 33 1006.8
20260505123303 72 291 3.5 6.1 0.00 0.00 0.00 34 1006.7
20260505123203 72 291 3.5 6.1 0.00 0.00 0.00 33 1006.7
20260505123103 72 291 3.5 6.1 0.00 0.00 0.00 33 1006.7
20260505123003 72 291 3.5 6.1 0.00 0.00 0.00 32 1006.7
20260505122904 72 290 3.5 5.2 0.00 0.00 0.00 32 1006.7
20260505122803 72 290 3.5 5.2 0.00 0.00 0.00 32 1006.7
20260505122703 72 290 3.5 5.2 0.00 0.00 0.00 32 1006.7
20260505122603 73 295 4.3 8.7 0.00 0.00 0.00 31 1006.7
20260505122504 73 302 5.2 10.4 0.00 0.00 0.00 33 1006.7
20260505122403 72 304 6.1 11.3 0.00 0.00 0.00 33 1006.7
20260505122305 72 305 6.1 11.3 0.00 0.00 0.00 32 1006.7
20260505122204 72 306 6.1 11.3 0.00 0.00 0.00 32 1006.7
20260505122103 72 305 5.2 11.3 0.00 0.00 0.00 33 1006.7
20260505122003 72 305 4.3 9.6 0.00 0.00 0.00 32 1006.7
20260505121903 72 305 4.3 9.6 0.00 0.00 0.00 31 1006.8
20260505121804 72 304 4.3 9.6 0.00 0.00 0.00 31 1006.7
20260505121703 73 303 3.5 9.6 0.00 0.00 0.00 31 1006.8
20260505121603 73 300 2.6 5.2 0.00 0.00 0.00 32 1006.8
20260505121503 73 299 2.6 5.2 0.00 0.00 0.00 30 1006.8
20260505121403 73 301 2.6 6.1 0.00 0.00 0.00 30 1006.8
20260505121303 73 302 3.5 6.1 0.00 0.00 0.00 30 1006.8
20260505121203 73 305 3.5 6.1 0.00 0.00 0.00 30 1006.8
20260505121104 74 307 2.6 6.1 0.00 0.00 0.00 30 1006.8
20260505121003 74 306 2.6 6.1 0.00 0.00 0.00 30 1006.8
20260505120903 74 302 2.6 6.1 0.00 0.00 0.00 30 1006.8
20260505120803 74 298 2.6 5.2 0.00 0.00 0.00 31 1006.8
20260505120704 73 297 3.5 6.1 0.00 0.00 0.00 30 1006.9
20260505120603 74 297 3.5 6.1 0.00 0.00 0.00 29 1006.9
20260505120503 75 297 3.5 6.1 0.00 0.00 0.00 30 1006.9
20260505120403 75 296 4.3 7.8 0.00 0.00 0.00 31 1006.9
20260505120303 74 294 4.3 7.8 0.00 0.00 0.00 31 1006.9
20260505120203 74 295 5.2 7.8 0.00 0.00 0.00 31 1006.9
20260505120103 73 297 5.2 7.8 0.00 0.00 0.00 30 1006.9
20260505120004 74 300 5.2 7.8 0.00 0.00 0.00 30 1006.9
20260505115903 74 303 4.3 7.8 0.00 0.00 0.00 30 1006.9
20260505115803 75 305 4.3 7.0 0.00 0.00 0.00 30 1006.9
20260505115703 75 303 4.3 7.8 0.00 0.00 0.00 30 1006.9
20260505115603 74 301 4.3 7.8 0.00 0.00 0.00 32 1006.9
20260505115504 73 298 5.2 7.8 0.00 0.00 0.00 30 1006.9
20260505115403 73 297 5.2 7.8 0.00 0.00 0.00 29 1007.0
20260505115305 73 299 5.2 9.6 0.00 0.00 0.00 29 1007.0
20260505115203 74 301 5.2 9.6 0.00 0.00 0.00 30 1007.0
20260505115103 74 304 5.2 9.6 0.00 0.00 0.00 29 1007.0
20260505115003 75 306 5.2 9.6 0.00 0.00 0.00 29 1007.0
20260505114903 75 306 5.2 9.6 0.00 0.00 0.00 29 1007.0
20260505114803 74 304 5.2 8.7 0.00 0.00 0.00 31 1007.0
20260505114703 74 302 4.3 7.8 0.00 0.00 0.00 29 1007.0
20260505114603 74 299 5.2 7.8 0.00 0.00 0.00 29 1007.0
20260505114503 74 297 4.3 7.8 0.00 0.00 0.00 29 1007.1
20260505114403 73 296 3.5 6.1 0.00 0.00 0.00 29 1007.0
20260505114303 74 295 3.5 6.1 0.00 0.00 0.00 29 1007.0
20260505114203 73 296 2.6 6.1 0.00 0.00 0.00 28 1007.1
20260505114103 74 299 2.6 6.1 0.00 0.00 0.00 28 1007.1
20260505114003 75 304 2.6 6.1 0.00 0.00 0.00 30 1007.1
20260505113903 74 309 2.6 6.1 0.00 0.00 0.00 31 1007.0
20260505113803 74 313 1.7 4.3 0.00 0.00 0.00 30 1007.1
20260505113703 74 316 1.7 4.3 0.00 0.00 0.00 31 1007.1
20260505113603 74 318 1.7 4.3 0.00 0.00 0.00 30 1007.1
20260505113503 74 317 2.6 4.3 0.00 0.00 0.00 30 1007.1
20260505113404 74 315 2.6 4.3 0.00 0.00 0.00 30 1007.1
20260505113303 73 309 1.7 3.5 0.00 0.00 0.00 30 1007.1
20260505113203 73 302 2.6 3.5 0.00 0.00 0.00 31 1007.1
20260505113103 72 295 2.6 4.3 0.00 0.00 0.00 30 1007.2
20260505113004 72 290 2.6 4.3 0.00 0.00 0.00 32 1007.2
20260505112903 72 283 2.6 4.3 0.00 0.00 0.00 32 1007.2
20260505112803 71 278 2.6 4.3 0.00 0.00 0.00 32 1007.2
20260505112704 71 270 1.7 4.3 0.00 0.00 0.00 32 1007.2
20260505112603 71 262 2.6 4.3 0.00 0.00 0.00 32 1007.2
20260505112503 71 253 2.6 4.3 0.00 0.00 0.00 32 1007.3
20260505112403 71 249 2.6 4.3 0.00 0.00 0.00 32 1007.3
20260505112305 72 245 2.6 4.3 0.00 0.00 0.00 31 1007.3
20260505112203 72 243 2.6 5.2 0.00 0.00 0.00 31 1007.3
20260505112103 72 243 1.7 5.2 0.00 0.00 0.00 32 1007.3
20260505112004 72 248 1.7 5.2 0.00 0.00 0.00 31 1007.3
20260505111903 72 254 1.7 5.2 0.00 0.00 0.00 31 1007.3
20260505111803 72 263 1.7 4.3 0.00 0.00 0.00 32 1007.3
20260505111703 72 269 1.7 4.3 0.00 0.00 0.00 31 1007.3
20260505111604 73 272 1.7 4.3 0.00 0.00 0.00 31 1007.3
20260505111503 73 272 2.6 7.0 0.00 0.00 0.00 32 1007.3
20260505111403 72 269 3.5 7.0 0.00 0.00 0.00 33 1007.3
20260505111303 72 265 3.5 7.0 0.00 0.00 0.00 34 1007.3
20260505111203 72 261 3.5 7.0 0.00 0.00 0.00 32 1007.3
20260505111103 73 255 3.5 6.1 0.00 0.00 0.00 33 1007.3
20260505111003 73 251 3.5 6.1 0.00 0.00 0.00 34 1007.3
20260505110904 73 247 2.6 5.2 0.00 0.00 0.00 35 1007.3
20260505110803 72 243 2.6 5.2 0.00 0.00 0.00 33 1007.4
20260505110703 72 244 3.5 9.6 0.00 0.00 0.00 32 1007.4
20260505110603 73 247 3.5 9.6 0.00 0.00 0.00 32 1007.4
20260505110504 73 251 4.3 9.6 0.00 0.00 0.00 33 1007.4
20260505110403 73 256 4.3 9.6 0.00 0.00 0.00 31 1007.4
20260505110303 74 261 4.3 7.0 0.00 0.00 0.00 32 1007.4
20260505110203 74 268 4.3 7.0 0.00 0.00 0.00 32 1007.4
20260505102203 71 292 3.5 6.1 0.00 0.00 0.00 38 1008.0
20260505102103 70 293 3.5 6.1 0.00 0.00 0.00 36 1008.0
20260505102004 71 292 4.3 7.0 0.00 0.00 0.00 36 1008.1
20260505101903 71 290 5.2 7.0 0.00 0.00 0.00 36 1008.0
20260505101803 71 288 4.3 7.0 0.00 0.00 0.00 37 1008.1
20260505101704 72 287 3.5 7.0 0.00 0.00 0.00 37 1008.1
20260505101604 72 284 1.7 7.0 0.00 0.00 0.00 37 1008.0
20260505101503 72 283 0.9 3.5 0.00 0.00 0.00 37 1008.0
20260505101403 71 284 0.9 3.5 0.00 0.00 0.00 38 1008.1
20260505101303 71 283 0.9 4.3 0.00 0.00 0.00 38 1008.1
20260505101204 70 287 1.7 4.3 0.00 0.00 0.00 37 1008.1
20260505101103 70 288 1.7 4.3 0.00 0.00 0.00 38 1008.1
20260505101003 71 288 1.7 4.3 0.00 0.00 0.00 37 1008.1
20260505100903 71 290 2.6 4.3 0.00 0.00 0.00 37 1008.1
20260505100803 72 290 1.7 4.3 0.00 0.00 0.00 38 1008.1
20260505100703 72 289 2.6 5.2 0.00 0.00 0.00 39 1008.1
20260505100603 71 288 3.5 7.0 0.00 0.00 0.00 37 1008.2
20260505100504 71 288 2.6 7.0 0.00 0.00 0.00 39 1008.2
20260505100403 70 288 3.5 7.0 0.00 0.00 0.00 38 1008.2
20260505100303 71 288 2.6 7.0 0.00 0.00 0.00 38 1008.2
20260505100203 71 292 1.7 6.1 0.00 0.00 0.00 39 1008.2
20260505100003 70 300 3.5 8.7 0.00 0.00 0.00 37 1008.3
20260505095903 70 300 3.5 8.7 0.00 0.00 0.00 36 1008.3
20260505095804 71 300 4.3 8.7 0.00 0.00 0.00 38 1008.3
20260505095703 71 300 3.5 8.7 0.00 0.00 0.00 37 1008.3
20260505095603 71 299 2.6 6.1 0.00 0.00 0.00 38 1008.3
20260505095504 71 294 3.5 6.1 0.00 0.00 0.00 38 1008.3
20260505095403 71 290 3.5 7.8 0.00 0.00 0.00 40 1008.3
20260505095305 70 286 4.3 7.8 0.00 0.00 0.00 37 1008.3
20260505095203 70 283 5.2 8.7 0.00 0.00 0.00 36 1008.3
20260505095103 71 278 5.2 8.7 0.00 0.00 0.00 36 1008.3
20260505095004 70 274 6.1 9.6 0.00 0.00 0.00 38 1008.3
20260505094903 70 270 5.2 9.6 0.00 0.00 0.00 37 1008.3
20260505094803 71 267 4.3 9.6 0.00 0.00 0.00 37 1008.3
20260505094703 71 266 3.5 9.6 0.00 0.00 0.00 38 1008.3
20260505094604 71 267 2.6 7.0 0.00 0.00 0.00 38 1008.3
20260505094503 71 270 3.5 6.1 0.00 0.00 0.00 37 1008.3
20260505094403 70 272 3.5 6.1 0.00 0.00 0.00 37 1008.3
20260505094303 70 275 2.6 6.1 0.00 0.00 0.00 38 1008.3
20260505094203 71 279 2.6 6.1 0.00 0.00 0.00 38 1008.3
20260505094103 71 280 2.6 5.2 0.00 0.00 0.00 38 1008.3
20260505094003 71 281 3.5 6.1 0.00 0.00 0.00 37 1008.3
20260505093904 70 284 4.3 7.0 0.00 0.00 0.00 34 1008.3
20260505093803 72 287 4.3 7.8 0.00 0.00 0.00 35 1008.4
20260505093703 71 291 5.2 7.8 0.00 0.00 0.00 36 1008.4
20260505093603 71 295 5.2 8.7 0.00 0.00 0.00 35 1008.3
20260505093504 72 297 5.2 8.7 0.00 0.00 0.00 35 1008.3
20260505093403 72 298 4.3 8.7 0.00 0.00 0.00 36 1008.3
20260505093303 72 300 3.5 8.7 0.00 0.00 0.00 38 1008.3
20260505093203 71 298 2.6 7.8 0.00 0.00 0.00 37 1008.3
20260505093103 71 293 2.6 5.2 0.00 0.00 0.00 38 1008.4
20260505093003 70 290 3.5 7.0 0.00 0.00 0.00 37 1008.4
20260505092903 69 288 5.2 7.8 0.00 0.00 0.00 37 1008.4
20260505092804 69 286 5.2 7.8 0.00 0.00 0.00 37 1008.4
20260505092703 70 285 5.2 7.8 0.00 0.00 0.00 37 1008.4
20260505092603 71 284 4.3 7.8 0.00 0.00 0.00 39 1008.4
20260505092503 70 283 3.5 7.8 0.00 0.00 0.00 40 1008.4
20260505092404 70 284 3.5 6.1 0.00 0.00 0.00 41 1008.4
20260505092305 70 283 3.5 6.1 0.00 0.00 0.00 41 1008.4
20260505092203 70 282 3.5 6.1 0.00 0.00 0.00 40 1008.4
20260505092103 71 281 3.5 6.1 0.00 0.00 0.00 41 1008.5
20260505092004 71 279 3.5 6.1 0.00 0.00 0.00 39 1008.5
20260505091903 71 277 3.5 5.2 0.00 0.00 0.00 40 1008.5
20260505091803 71 274 3.5 6.1 0.00 0.00 0.00 41 1008.5
20260505091703 71 270 3.5 6.1 0.00 0.00 0.00 42 1008.5
20260505091603 70 266 3.5 6.1 0.00 0.00 0.00 41 1008.5
20260505091503 71 263 3.5 6.1 0.00 0.00 0.00 40 1008.5
20260505091403 70 260 1.7 5.2 0.00 0.00 0.00 41 1008.5
20260505091304 70 257 1.7 5.2 0.00 0.00 0.00 41 1008.5
20260505091203 70 254 0.9 4.3 0.00 0.00 0.00 40 1008.5
20260505091103 71 260 0.9 3.5 0.00 0.00 0.00 41 1008.5
20260505091003 71 265 1.7 3.5 0.00 0.00 0.00 40 1008.5
20260505090903 70 268 1.7 3.5 0.00 0.00 0.00 40 1008.5
20260505090803 71 272 1.7 3.5 0.00 0.00 0.00 40 1008.5
20260505090703 71 276 0.9 3.5 0.00 0.00 0.00 40 1008.5
20260505090603 71 287 0.9 2.6 0.00 0.00 0.00 42 1008.5
20260505090503 70 290 0.9 3.5 0.00 0.00 0.00 42 1008.6
20260505090403 69 288 1.7 3.5 0.00 0.00 0.00 41 1008.6
20260505090303 69 285 1.7 3.5 0.00 0.00 0.00 41 1008.6
20260505090204 69 280 2.6 5.2 0.00 0.00 0.00 42 1008.6
20260505090003 69 268 3.5 5.2 0.00 0.00 0.00 43 1008.6
20260505085903 69 265 2.6 5.2 0.00 0.00 0.00 42 1008.6
20260505085803 69 260 1.7 4.3 0.00 0.00 0.00 42 1008.6
20260505085703 69 252 1.7 4.3 0.00 0.00 0.00 41 1008.6
20260505085603 69 242 1.7 3.5 0.00 0.00 0.00 41 1008.6
20260505085504 69 235 1.7 3.5 0.00 0.00 0.00 41 1008.6
20260505085403 70 231 1.7 3.5 0.00 0.00 0.00 41 1008.6
20260505085304 70 227 1.7 3.5 0.00 0.00 0.00 41 1008.6
20260505085204 70 226 1.7 3.5 0.00 0.00 0.00 43 1008.6
20260505085103 69 227 1.7 4.3 0.00 0.00 0.00 44 1008.6
20260505085004 69 227 2.6 5.2 0.00 0.00 0.00 44 1008.6
20260505084903 69 226 2.6 5.2 0.00 0.00 0.00 42 1008.6
20260505084803 69 224 2.6 5.2 0.00 0.00 0.00 42 1008.6
20260505084703 69 217 1.7 5.2 0.00 0.00 0.00 43 1008.6
20260505084603 69 211 1.7 3.5 0.00 0.00 0.00 43 1008.6
20260505084503 70 209 0.9 2.6 0.00 0.00 0.00 44 1008.6
20260505084403 69 201 1.7 2.6 0.00 0.00 0.00 45 1008.6
20260505084304 69 189 1.7 4.3 0.00 0.00 0.00 45 1008.6
20260505084203 69 183 1.7 4.3 0.00 0.00 0.00 46 1008.6
20260505084103 69 180 2.6 4.3 0.00 0.00 0.00 45 1008.6
20260505084003 68 174 1.7 4.3 0.00 0.00 0.00 45 1008.6
20260505083903 68 167 1.7 3.5 0.00 0.00 0.00 44 1008.6
20260505083803 68 163 0.9 3.5 0.00 0.00 0.00 44 1008.6
20260505083703 68 157 0.9 2.6 0.00 0.00 0.00 44 1008.6
20260505083603 69 151 0.9 1.7 0.00 0.00 0.00 43 1008.6
20260505083503 69 145 0.0 1.7 0.00 0.00 0.00 44 1008.6
20260505083403 69 151 0.0 1.7 0.00 0.00 0.00 43 1008.6
20260505083304 69 159 0.9 1.7 0.00 0.00 0.00 44 1008.7
20260505083203 69 167 0.9 1.7 0.00 0.00 0.00 44 1008.7
20260505083103 70 169 0.9 1.7 0.00 0.00 0.00 43 1008.7
20260505083003 70 175 0.9 1.7 0.00 0.00 0.00 42 1008.7
20260505082904 69 178 0.9 1.7 0.00 0.00 0.00 43 1008.7
20260505082803 69 184 0.0 0.9 0.00 0.00 0.00 44 1008.7
20260505082703 69 186 0.0 0.9 0.00 0.00 0.00 43 1008.7
20260505082603 69 0 0.0 0.0 0.00 0.00 0.00 44 1008.7
20260505082503 68 214 0.0 0.9 0.00 0.00 0.00 44 1008.7
20260505082403 68 218 0.0 1.7 0.00 0.00 0.00 44 1008.7
20260505082304 68 219 0.9 1.7 0.00 0.00 0.00 43 1008.7
20260505082204 68 220 0.9 1.7 0.00 0.00 0.00 43 1008.7
20260505082103 68 222 0.9 1.7 0.00 0.00 0.00 43 1008.8
20260505082003 68 225 0.9 1.7 0.00 0.00 0.00 43 1008.8
20260505081903 68 230 0.0 1.7 0.00 0.00 0.00 44 1008.8
20260505081804 68 235 0.0 1.7 0.00 0.00 0.00 45 1008.8
20260505081703 68 236 0.0 1.7 0.00 0.00 0.00 46 1008.8
20260505081603 68 236 0.0 1.7 0.00 0.00 0.00 46 1008.8
20260505081503 68 228 0.9 2.6 0.00 0.00 0.00 47 1008.8
20260505081403 67 224 0.9 2.6 0.00 0.00 0.00 46 1008.8
20260505081303 67 217 1.7 3.5 0.00 0.00 0.00 46 1008.9
20260505081203 67 212 1.7 3.5 0.00 0.00 0.00 46 1008.9
20260505081104 67 204 1.7 3.5 0.00 0.00 0.00 47 1008.9
20260505081003 67 198 2.6 3.5 0.00 0.00 0.00 47 1008.9
20260505080903 67 193 1.7 3.5 0.00 0.00 0.00 48 1008.9
20260505080803 67 190 1.7 3.5 0.00 0.00 0.00 49 1008.9
20260505080704 67 182 1.7 3.5 0.00 0.00 0.00 50 1008.9
20260505080603 67 170 1.7 3.5 0.00 0.00 0.00 49 1008.9
20260505080504 66 166 0.9 3.5 0.00 0.00 0.00 49 1008.9
20260505080403 66 162 1.7 3.5 0.00 0.00 0.00 48 1008.9
20260505080303 66 156 0.9 3.5 0.00 0.00 0.00 48 1008.9
20260505080203 67 143 0.9 2.6 0.00 0.00 0.00 48 1008.9
20260505080103 67 135 0.9 2.6 0.00 0.00 0.00 49 1008.9
20260505080003 67 128 1.7 2.6 0.00 0.00 0.00 49 1008.9
20260505075903 66 126 1.7 2.6 0.00 0.00 0.00 49 1008.9
20260505075804 66 119 1.7 2.6 0.00 0.00 0.00 50 1008.9
20260505075703 66 110 0.9 2.6 0.00 0.00 0.00 49 1008.9
20260505075603 66 102 0.9 2.6 0.00 0.00 0.00 50 1008.9
20260505075504 67 96 0.9 2.6 0.00 0.00 0.00 51 1009.0
20260505075404 67 92 0.9 2.6 0.00 0.00 0.00 49 1009.0
20260505075304 67 87 0.0 1.7 0.00 0.00 0.00 50 1009.0
20260505075203 67 87 0.0 1.7 0.00 0.00 0.00 50 1009.0
20260505075104 67 89 0.0 1.7 0.00 0.00 0.00 49 1009.0
20260505075004 67 90 0.0 0.9 0.00 0.00 0.00 50 1009.0
20260505074904 67 90 0.0 0.9 0.00 0.00 0.00 49 1009.0
20260505074803 67 0 0.0 0.0 0.00 0.00 0.00 50 1009.0
20260505074703 67 0 0.0 0.0 0.00 0.00 0.00 49 1009.0
20260505074604 67 0 0.0 0.0 0.00 0.00 0.00 50 1009.0
20260505074504 67 79 0.0 0.0 0.00 0.00 0.00 50 1009.0
20260505074403 67 79 0.0 0.0 0.00 0.00 0.00 50 1009.0
20260505074303 66 79 0.0 0.0 0.00 0.00 0.00 50 1009.0
20260505074203 65 74 0.0 0.9 0.00 0.00 0.00 52 1009.0
20260505074104 65 68 0.0 0.9 0.00 0.00 0.00 51 1009.0
20260505074003 65 69 0.0 0.9 0.00 0.00 0.00 51 1009.0
20260505073903 65 69 0.0 1.7 0.00 0.00 0.00 51 1009.0
20260505073803 65 71 0.9 2.6 0.00 0.00 0.00 52 1009.0
20260505073703 65 75 0.9 2.6 0.00 0.00 0.00 51 1009.0
20260505073603 65 76 1.7 2.6 0.00 0.00 0.00 52 1009.0
20260505073503 65 79 0.9 2.6 0.00 0.00 0.00 51 1009.0
20260505073403 64 83 0.9 2.6 0.00 0.00 0.00 51 1009.0
20260505073303 65 90 0.0 1.7 0.00 0.00 0.00 51 1009.0
20260505073203 65 92 0.0 1.7 0.00 0.00 0.00 51 1009.0
20260505073103 64 93 0.0 1.7 0.00 0.00 0.00 51 1009.0
20260505073004 65 90 0.0 1.7 0.00 0.00 0.00 51 1009.0
20260505072903 65 85 0.0 1.7 0.00 0.00 0.00 50 1009.0
20260505072803 65 81 0.0 1.7 0.00 0.00 0.00 51 1009.0
20260505072703 64 78 0.9 1.7 0.00 0.00 0.00 52 1009.0
20260505072604 65 78 0.9 1.7 0.00 0.00 0.00 52 1009.0
20260505072503 65 79 0.9 1.7 0.00 0.00 0.00 52 1009.0
20260505072403 65 80 0.9 1.7 0.00 0.00 0.00 50 1009.2
20260505072305 65 79 0.9 1.7 0.00 0.00 0.00 51 1009.2
20260505072204 65 76 0.9 2.6 0.00 0.00 0.00 50 1009.2
20260505072103 65 74 0.9 3.5 0.00 0.00 0.00 51 1009.2
20260505072003 64 74 0.9 3.5 0.00 0.00 0.00 52 1009.2
20260505071903 64 73 1.7 3.5 0.00 0.00 0.00 51 1009.2
20260505071804 64 74 1.7 3.5 0.00 0.00 0.00 51 1009.2
20260505071703 64 76 1.7 3.5 0.00 0.00 0.00 51 1009.2
20260505071603 64 78 1.7 3.5 0.00 0.00 0.00 52 1009.2
20260505071503 64 81 0.9 2.6 0.00 0.00 0.00 51 1009.2
20260505071403 64 84 0.9 2.6 0.00 0.00 0.00 50 1009.2
20260505071303 65 88 0.0 1.7 0.00 0.00 0.00 49 1009.2
20260505071203 65 88 0.0 0.9 0.00 0.00 0.00 50 1009.2
20260505071104 65 87 0.0 0.9 0.00 0.00 0.00 50 1009.2
20260505071003 64 0 0.0 0.9 0.00 0.00 0.00 49 1009.2
20260505070903 64 86 0.0 0.9 0.00 0.00 0.00 48 1009.2
20260505070803 64 86 0.0 0.9 0.00 0.00 0.00 49 1009.3
20260505070703 64 86 0.0 0.9 0.00 0.00 0.00 49 1009.3
20260505070603 64 82 0.0 0.9 0.00 0.00 0.00 50 1009.3
20260505070503 65 80 0.0 0.9 0.00 0.00 0.00 50 1009.3
20260505070404 65 77 0.0 0.9 0.00 0.00 0.00 50 1009.3
20260505070303 64 76 0.0 0.9 0.00 0.00 0.00 50 1009.3
20260505070203 64 74 0.0 0.0 0.00 0.00 0.00 51 1009.3
20260505070103 64 74 0.0 0.0 0.00 0.00 0.00 50 1009.3
20260505070003 64 73 0.0 0.0 0.00 0.00 0.00 51 1009.4
20260505065903 64 0 0.0 0.0 0.00 0.00 0.00 52 1009.4
20260505065803 63 0 0.0 0.0 0.00 0.00 0.00 52 1009.4
20260505065704 63 0 0.0 0.0 0.00 0.00 0.00 53 1009.4
20260505065603 63 0 0.0 0.0 0.00 0.00 0.00 53 1009.4
20260505065503 63 0 0.0 0.9 0.00 0.00 0.00 53 1009.4
20260505065403 63 96 0.0 0.9 0.00 0.00 0.00 53 1009.4
20260505065304 63 99 0.0 0.9 0.00 0.00 0.00 55 1009.4
20260505065203 63 99 0.0 0.9 0.00 0.00 0.00 54 1009.4
20260505065103 63 101 0.0 0.9 0.00 0.00 0.00 54 1009.4
20260505065004 63 106 0.0 1.7 0.00 0.00 0.00 55 1009.4
20260505064903 63 108 0.0 1.7 0.00 0.00 0.00 54 1009.4
20260505064803 63 111 0.9 1.7 0.00 0.00 0.00 54 1009.4
20260505064703 63 116 0.9 1.7 0.00 0.00 0.00 54 1009.4
20260505064604 63 125 0.9 1.7 0.00 0.00 0.00 55 1009.4
20260505064503 63 129 0.9 1.7 0.00 0.00 0.00 56 1009.5
20260505064403 62 133 0.9 1.7 0.00 0.00 0.00 57 1009.5
20260505064303 62 135 0.9 1.7 0.00 0.00 0.00 58 1009.5
20260505064204 62 138 0.0 1.7 0.00 0.00 0.00 59 1009.5
20260505064103 61 147 0.0 0.9 0.00 0.00 0.00 59 1009.5
20260505064003 61 157 0.0 0.9 0.00 0.00 0.00 62 1009.5
20260505063903 60 155 0.9 2.6 0.00 0.00 0.00 62 1009.5
20260505063804 60 155 0.9 2.6 0.00 0.00 0.00 62 1009.5
20260505063703 61 155 0.9 2.6 0.00 0.00 0.00 60 1009.5
20260505063603 62 154 0.9 2.6 0.00 0.00 0.00 60 1009.5
20260505063503 62 155 0.0 1.7 0.00 0.00 0.00 59 1009.5
20260505063403 61 158 0.0 0.9 0.00 0.00 0.00 60 1009.5
20260505063303 61 160 0.0 0.9 0.00 0.00 0.00 61 1009.5
20260505063203 61 163 0.0 0.9 0.00 0.00 0.00 61 1009.5
20260505063104 61 166 0.0 0.9 0.00 0.00 0.00 60 1009.5
20260505063004 61 173 0.0 0.9 0.00 0.00 0.00 60 1009.5
20260505062903 61 183 0.0 1.7 0.00 0.00 0.00 61 1009.5
20260505062803 61 188 0.9 1.7 0.00 0.00 0.00 62 1009.5
20260505062703 60 194 0.9 1.7 0.00 0.00 0.00 61 1009.5
20260505062603 60 195 0.9 1.7 0.00 0.00 0.00 61 1009.5
20260505062503 61 200 0.0 1.7 0.00 0.00 0.00 59 1009.5
20260505062403 60 202 0.0 1.7 0.00 0.00 0.00 61 1009.4
20260505062304 60 0 0.0 0.0 0.00 0.00 0.00 61 1009.4
20260505062203 59 0 0.0 0.0 0.00 0.00 0.00 62 1009.4
20260505062103 59 0 0.0 0.0 0.00 0.00 0.00 64 1009.4
20260505062003 58 0 0.0 0.0 0.00 0.00 0.00 65 1009.5
20260505061904 58 175 0.0 0.9 0.00 0.00 0.00 66 1009.5
20260505061803 58 173 0.0 0.9 0.00 0.00 0.00 67 1009.5
20260505061703 57 173 0.0 0.9 0.00 0.00 0.00 66 1009.5
20260505061603 58 163 0.0 0.9 0.00 0.00 0.00 66 1009.5
20260505061503 58 155 0.0 0.9 0.00 0.00 0.00 66 1009.5
20260505061403 58 149 0.0 0.9 0.00 0.00 0.00 66 1009.5
20260505061303 58 144 0.0 0.9 0.00 0.00 0.00 66 1009.5
20260505061204 58 130 0.0 1.7 0.00 0.00 0.00 65 1009.5
20260505061103 58 124 0.9 1.7 0.00 0.00 0.00 65 1009.5
20260505061003 58 120 0.9 1.7 0.00 0.00 0.00 65 1009.5
20260505060903 58 115 0.9 1.7 0.00 0.00 0.00 64 1009.6
20260505060803 58 110 0.9 1.7 0.00 0.00 0.00 65 1009.6
20260505060703 58 102 0.9 1.7 0.00 0.00 0.00 64 1009.6
20260505060603 59 98 0.9 1.7 0.00 0.00 0.00 64 1009.6
20260505060504 59 94 0.0 1.7 0.00 0.00 0.00 64 1009.6
20260505060403 60 92 0.0 0.9 0.00 0.00 0.00 63 1009.6
20260505060303 60 0 0.0 0.9 0.00 0.00 0.00 60 1009.6
20260505060203 61 0 0.0 0.0 0.00 0.00 0.00 60 1009.6
20260505060103 61 0 0.0 0.0 0.00 0.00 0.00 59 1009.6
20260505060003 62 0 0.0 0.0 0.00 0.00 0.00 55 1009.5
20260505055903 62 0 0.0 0.0 0.00 0.00 0.00 54 1009.5
20260505055803 62 0 0.0 0.0 0.00 0.00 0.00 55 1009.5
20260505055704 61 58 0.0 0.0 0.00 0.00 0.00 55 1009.5
20260505055603 61 63 0.0 0.9 0.00 0.00 0.00 55 1009.5
20260505055503 60 68 0.0 0.9 0.00 0.00 0.00 55 1009.5
20260505055403 60 69 0.0 1.7 0.00 0.00 0.00 56 1009.5
20260505055304 60 73 0.9 1.7 0.00 0.00 0.00 57 1009.5
20260505055203 60 75 0.9 1.7 0.00 0.00 0.00 57 1009.5
20260505055103 60 77 0.9 1.7 0.00 0.00 0.00 58 1009.5
20260505055003 60 79 0.0 1.7 0.00 0.00 0.00 59 1009.5
20260505054903 60 79 0.0 1.7 0.00 0.00 0.00 59 1009.5
20260505054803 60 82 0.0 0.0 0.00 0.00 0.00 60 1009.5
20260505054703 59 0 0.0 0.0 0.00 0.00 0.00 61 1009.4
20260505054603 59 0 0.0 0.0 0.00 0.00 0.00 62 1009.4
20260505054503 59 84 0.0 0.9 0.00 0.00 0.00 62 1009.4
20260505054403 58 85 0.0 0.9 0.00 0.00 0.00 61 1009.4
20260505054303 58 85 0.0 0.9 0.00 0.00 0.00 61 1009.4
20260505054203 59 85 0.0 0.9 0.00 0.00 0.00 61 1009.4
20260505054103 58 85 0.0 0.9 0.00 0.00 0.00 61 1009.4
20260505054003 58 0 0.0 0.0 0.00 0.00 0.00 61 1009.4
20260505053904 58 0 0.0 0.0 0.00 0.00 0.00 62 1009.4
20260505053803 58 0 0.0 0.0 0.00 0.00 0.00 62 1009.4
20260505053703 58 0 0.0 0.0 0.00 0.00 0.00 61 1009.4
20260505053603 58 0 0.0 0.0 0.00 0.00 0.00 61 1009.4
20260505053503 58 0 0.0 0.0 0.00 0.00 0.00 61 1009.4
20260505053403 59 0 0.0 0.0 0.00 0.00 0.00 61 1009.5
20260505053303 59 0 0.0 0.0 0.00 0.00 0.00 61 1009.5
20260505053204 59 0 0.0 0.0 0.00 0.00 0.00 61 1009.5
20260505053103 60 0 0.0 0.0 0.00 0.00 0.00 59 1009.5
20260505053003 61 0 0.0 0.0 0.00 0.00 0.00 57 1009.5
20260505052903 61 0 0.0 0.0 0.00 0.00 0.00 58 1009.5
20260505052804 61 0 0.0 0.0 0.00 0.00 0.00 58 1009.5
20260505052703 61 0 0.0 0.0 0.00 0.00 0.00 58 1009.5
20260505052603 61 0 0.0 0.0 0.00 0.00 0.00 57 1009.5
20260505052503 60 0 0.0 0.0 0.00 0.00 0.00 57 1009.5
20260505052404 60 0 0.0 0.0 0.00 0.00 0.00 57 1009.5
20260505052304 60 0 0.0 0.0 0.00 0.00 0.00 58 1009.5
20260505052203 59 0 0.0 0.0 0.00 0.00 0.00 60 1009.5
20260505052103 59 0 0.0 0.0 0.00 0.00 0.00 60 1009.5
20260505052004 59 0 0.0 0.0 0.00 0.00 0.00 59 1009.5
20260505051904 59 0 0.0 0.0 0.00 0.00 0.00 60 1009.5
20260505051803 59 0 0.0 0.0 0.00 0.00 0.00 60 1009.5
20260505051703 59 0 0.0 0.0 0.00 0.00 0.00 60 1009.5
20260505051603 59 0 0.0 0.0 0.00 0.00 0.00 61 1009.4
20260505051504 59 0 0.0 0.0 0.00 0.00 0.00 61 1009.4
20260505051403 59 0 0.0 0.0 0.00 0.00 0.00 61 1009.4
20260505051303 58 0 0.0 0.0 0.00 0.00 0.00 62 1009.4
20260505051203 58 0 0.0 0.0 0.00 0.00 0.00 62 1009.4
20260505051104 58 0 0.0 0.0 0.00 0.00 0.00 62 1009.4
20260505051003 58 0 0.0 0.0 0.00 0.00 0.00 62 1009.4
20260505050903 58 0 0.0 0.0 0.00 0.00 0.00 62 1009.4
20260505050803 59 0 0.0 0.0 0.00 0.00 0.00 61 1009.4
20260505050704 59 0 0.0 0.0 0.00 0.00 0.00 59 1009.4
20260505050603 59 0 0.0 0.0 0.00 0.00 0.00 60 1009.4
20260505050503 59 0 0.0 0.0 0.00 0.00 0.00 59 1009.4
20260505050403 59 0 0.0 0.0 0.00 0.00 0.00 59 1009.4
20260505050303 58 0 0.0 0.0 0.00 0.00 0.00 60 1009.4
20260505050203 57 0 0.0 0.0 0.00 0.00 0.00 60 1009.5
20260505050103 57 0 0.0 0.0 0.00 0.00 0.00 60 1009.5
20260505041704 54 86 0.9 2.6 0.00 0.00 0.00 66 1009.5
20260505041603 54 88 0.9 2.6 0.00 0.00 0.00 66 1009.5
20260505041503 54 91 0.9 1.7 0.00 0.00 0.00 66 1009.5
20260505041403 54 89 0.9 2.6 0.00 0.00 0.00 67 1009.5
20260505041304 54 87 0.9 2.6 0.00 0.00 0.00 68 1009.5
20260505041203 54 84 0.9 2.6 0.00 0.00 0.00 68 1009.5
20260505041103 54 79 0.9 2.6 0.00 0.00 0.00 68 1009.5
20260505041003 54 68 0.9 3.5 0.00 0.00 0.00 67 1009.5
20260505040903 54 65 0.9 3.5 0.00 0.00 0.00 67 1009.5
20260505040803 54 62 1.7 3.5 0.00 0.00 0.00 67 1009.5
20260505040703 54 60 1.7 3.5 0.00 0.00 0.00 67 1009.5
20260505040603 54 58 1.7 2.6 0.00 0.00 0.00 67 1009.5
20260505040503 54 57 0.9 2.6 0.00 0.00 0.00 66 1009.5
20260505040403 54 56 0.9 2.6 0.00 0.00 0.00 65 1009.5
20260505040304 55 57 0.9 1.7 0.00 0.00 0.00 65 1009.6
20260505040203 55 58 0.9 1.7 0.00 0.00 0.00 65 1009.6
20260505040103 55 58 0.9 1.7 0.00 0.00 0.00 64 1009.6
20260505040004 55 59 0.9 1.7 0.00 0.00 0.00 64 1009.6
20260505035904 55 59 0.9 1.7 0.00 0.00 0.00 64 1009.6
20260505035803 55 56 0.9 2.6 0.00 0.00 0.00 64 1009.5
20260505035703 54 54 1.7 2.6 0.00 0.00 0.00 65 1009.5
20260505035603 54 54 1.7 3.5 0.00 0.00 0.00 65 1009.5
20260505035504 54 53 1.7 3.5 0.00 0.00 0.00 65 1009.5
20260505035403 54 52 1.7 3.5 0.00 0.00 0.00 65 1009.5
20260505035304 54 49 2.6 4.3 0.00 0.00 0.00 65 1009.5
20260505035204 54 45 2.6 4.3 0.00 0.00 0.00 66 1009.5
20260505035103 54 40 2.6 4.3 0.00 0.00 0.00 67 1009.5
20260505035003 53 35 1.7 4.3 0.00 0.00 0.00 68 1009.4
20260505034903 53 31 1.7 3.5 0.00 0.00 0.00 70 1009.4
20260505034803 53 25 0.9 2.6 0.00 0.00 0.00 71 1009.4
20260505034703 53 21 0.0 1.7 0.00 0.00 0.00 71 1009.5
20260505034603 53 18 0.0 0.9 0.00 0.00 0.00 70 1009.5
20260505034503 53 18 0.0 0.9 0.00 0.00 0.00 70 1009.5
20260505034403 53 19 0.0 0.0 0.00 0.00 0.00 70 1009.5
20260505034303 53 46 0.0 0.9 0.00 0.00 0.00 69 1009.5
20260505034203 53 48 0.0 0.9 0.00 0.00 0.00 69 1009.5
20260505034104 53 53 0.0 0.9 0.00 0.00 0.00 69 1009.5
20260505034003 53 57 0.9 2.6 0.00 0.00 0.00 69 1009.5
20260505033903 53 57 0.9 2.6 0.00 0.00 0.00 69 1009.4
20260505033803 53 56 1.7 2.6 0.00 0.00 0.00 69 1009.4
20260505033703 53 54 1.7 2.6 0.00 0.00 0.00 69 1009.4
20260505033603 53 52 1.7 2.6 0.00 0.00 0.00 69 1009.4
20260505033503 53 50 1.7 2.6 0.00 0.00 0.00 68 1009.4
20260505033403 53 48 1.7 2.6 0.00 0.00 0.00 68 1009.4
20260505033303 53 46 1.7 2.6 0.00 0.00 0.00 68 1009.4
20260505033203 53 41 1.7 2.6 0.00 0.00 0.00 69 1009.4
20260505033104 53 33 0.9 1.7 0.00 0.00 0.00 69 1009.4
20260505033003 54 23 0.9 1.7 0.00 0.00 0.00 68 1009.4
20260505032903 54 15 0.9 1.7 0.00 0.00 0.00 68 1009.5
20260505032803 54 10 0.9 1.7 0.00 0.00 0.00 68 1009.5
20260505032703 54 7 0.9 1.7 0.00 0.00 0.00 67 1009.5
20260505032603 54 4 0.9 1.7 0.00 0.00 0.00 67 1009.5
20260505032503 54 1 0.0 1.7 0.00 0.00 0.00 67 1009.6
20260505032403 54 0 0.0 0.0 0.00 0.00 0.00 67 1009.6
20260505032304 54 0 0.0 0.0 0.00 0.00 0.00 67 1009.6
20260505032203 54 0 0.0 0.0 0.00 0.00 0.00 66 1009.6
20260505032104 54 0 0.0 0.0 0.00 0.00 0.00 66 1009.6
20260505032003 54 0 0.0 0.0 0.00 0.00 0.00 66 1009.6
20260505031903 54 0 0.0 0.0 0.00 0.00 0.00 66 1009.6
20260505031803 54 0 0.0 0.0 0.00 0.00 0.00 67 1009.6
20260505031703 54 0 0.0 0.0 0.00 0.00 0.00 67 1009.6
20260505031603 54 0 0.0 0.0 0.00 0.00 0.00 67 1009.6
20260505031503 54 309 0.0 0.9 0.00 0.00 0.00 67 1009.6
20260505031404 54 314 0.0 0.9 0.00 0.00 0.00 67 1009.6
20260505031303 54 319 0.0 1.7 0.00 0.00 0.00 67 1009.6
20260505031203 54 322 0.9 1.7 0.00 0.00 0.00 66 1009.6
20260505031103 54 327 0.9 1.7 0.00 0.00 0.00 67 1009.6
20260505031003 54 331 0.9 1.7 0.00 0.00 0.00 67 1009.6
20260505030903 54 335 0.0 0.9 0.00 0.00 0.00 67 1009.6
20260505030803 54 340 0.0 0.9 0.00 0.00 0.00 66 1009.6
20260505030703 54 345 0.0 0.9 0.00 0.00 0.00 66 1009.6
20260505030603 54 0 0.0 0.9 0.00 0.00 0.00 66 1009.6
20260505030503 55 2 0.0 0.9 0.00 0.00 0.00 66 1009.6
20260505030404 55 3 0.0 0.9 0.00 0.00 0.00 66 1009.6
20260505030303 55 3 0.0 0.9 0.00 0.00 0.00 65 1009.6
20260505030203 55 5 0.0 0.9 0.00 0.00 0.00 64 1009.6
20260505030103 55 24 0.0 0.9 0.00 0.00 0.00 65 1009.6
20260505030004 55 35 0.0 0.9 0.00 0.00 0.00 64 1009.6
20260505025903 55 38 0.0 0.9 0.00 0.00 0.00 64 1009.6
20260505025803 55 41 0.0 0.9 0.00 0.00 0.00 65 1009.6
20260505025703 55 47 0.0 0.9 0.00 0.00 0.00 65 1009.6
20260505025604 55 51 0.0 0.9 0.00 0.00 0.00 65 1009.6
20260505025503 55 55 0.0 0.9 0.00 0.00 0.00 65 1009.6
20260505025403 55 59 0.0 0.9 0.00 0.00 0.00 65 1009.6
20260505025305 55 0 0.0 0.0 0.00 0.00 0.00 65 1009.6
20260505025203 55 0 0.0 0.0 0.00 0.00 0.00 65 1009.7
20260505025103 55 0 0.0 0.0 0.00 0.00 0.00 64 1009.7
20260505025004 55 108 0.0 0.9 0.00 0.00 0.00 64 1009.7
20260505024904 56 114 0.0 0.9 0.00 0.00 0.00 64 1009.7
20260505024803 56 117 0.0 0.9 0.00 0.00 0.00 63 1009.7
20260505024703 56 117 0.0 0.9 0.00 0.00 0.00 63 1009.6
20260505024603 56 118 0.0 0.9 0.00 0.00 0.00 62 1009.6
20260505024504 56 123 0.0 0.9 0.00 0.00 0.00 61 1009.6
20260505024403 56 0 0.0 0.0 0.00 0.00 0.00 61 1009.6
20260505024303 57 158 0.0 0.0 0.00 0.00 0.00 61 1009.6
20260505024203 57 158 0.0 0.0 0.00 0.00 0.00 60 1009.6
20260505024104 57 158 0.0 0.0 0.00 0.00 0.00 60 1009.7
20260505024003 57 173 0.0 0.9 0.00 0.00 0.00 60 1009.7
20260505023903 57 177 0.0 0.9 0.00 0.00 0.00 60 1009.7
20260505023803 56 176 0.9 0.9 0.00 0.00 0.00 61 1009.7
20260505023703 56 175 0.9 0.9 0.00 0.00 0.00 62 1009.7
20260505023603 56 171 0.9 0.9 0.00 0.00 0.00 63 1009.7
20260505023503 56 167 0.9 1.7 0.00 0.00 0.00 62 1009.7
20260505023404 56 161 0.9 1.7 0.00 0.00 0.00 62 1009.7
20260505023303 56 158 0.9 1.7 0.00 0.00 0.00 63 1009.7
20260505023203 56 153 0.9 1.7 0.00 0.00 0.00 63 1009.7
20260505023103 56 151 0.9 1.7 0.00 0.00 0.00 62 1009.7
20260505023004 57 153 0.0 1.7 0.00 0.00 0.00 61 1009.7
20260505022904 57 157 0.9 1.7 0.00 0.00 0.00 61 1009.8
20260505022803 57 162 0.9 1.7 0.00 0.00 0.00 60 1009.8
20260505022703 57 169 0.9 2.6 0.00 0.00 0.00 60 1009.8
20260505022604 57 174 0.9 3.5 0.00 0.00 0.00 60 1009.8
20260505022503 57 178 1.7 3.5 0.00 0.00 0.00 60 1009.8
20260505022403 57 180 1.7 3.5 0.00 0.00 0.00 59 1009.8
20260505022304 57 183 1.7 3.5 0.00 0.00 0.00 59 1009.8
20260505022204 57 185 1.7 3.5 0.00 0.00 0.00 59 1009.8
20260505022103 57 187 1.7 3.5 0.00 0.00 0.00 59 1009.8
20260505022004 57 188 1.7 3.5 0.00 0.00 0.00 59 1009.8
20260505021903 57 188 1.7 3.5 0.00 0.00 0.00 59 1009.8
20260505021803 57 188 1.7 3.5 0.00 0.00 0.00 59 1009.8
20260505021703 57 189 1.7 3.5 0.00 0.00 0.00 60 1009.8
20260505021604 57 192 1.7 2.6 0.00 0.00 0.00 60 1009.8
20260505021503 57 194 0.9 2.6 0.00 0.00 0.00 60 1009.8
20260505021403 57 202 0.9 1.7 0.00 0.00 0.00 61 1009.8
20260505021303 56 207 0.9 1.7 0.00 0.00 0.00 61 1009.9
20260505021204 56 218 0.9 2.6 0.00 0.00 0.00 62 1009.9
20260505021104 56 222 0.9 2.6 0.00 0.00 0.00 63 1009.9
20260505021004 56 228 0.9 2.6 0.00 0.00 0.00 63 1009.9
20260505020903 56 228 0.9 2.6 0.00 0.00 0.00 63 1009.9
20260505020803 56 227 0.9 1.7 0.00 0.00 0.00 64 1009.9
20260505020703 56 222 0.9 1.7 0.00 0.00 0.00 64 1009.9
20260505020604 56 214 0.0 1.7 0.00 0.00 0.00 64 1010.0
20260505020504 56 204 0.9 2.6 0.00 0.00 0.00 64 1010.0
20260505020403 56 199 0.9 2.6 0.00 0.00 0.00 63 1010.0
20260505020303 56 197 1.7 3.5 0.00 0.00 0.00 63 1010.0
20260505020203 56 197 1.7 3.5 0.00 0.00 0.00 62 1009.9
20260505020103 56 198 1.7 3.5 0.00 0.00 0.00 62 1009.9
20260505020004 56 200 1.7 3.5 0.00 0.00 0.00 63 1009.9
20260505015904 56 207 0.9 3.5 0.00 0.00 0.00 64 1009.9
20260505015804 56 209 0.9 1.7 0.00 0.00 0.00 64 1009.9
20260505015704 56 211 0.9 1.7 0.00 0.00 0.00 65 1009.9
20260505015604 56 212 0.9 1.7 0.00 0.00 0.00 64 1009.9
20260505015503 56 216 0.0 1.7 0.00 0.00 0.00 64 1009.9
20260505015404 56 211 0.0 0.9 0.00 0.00 0.00 63 1009.9
20260505015303 56 204 0.0 0.9 0.00 0.00 0.00 63 1009.9
20260505015203 56 197 0.9 0.9 0.00 0.00 0.00 64 1009.9
20260505015104 56 195 0.9 0.9 0.00 0.00 0.00 64 1009.9
20260505015004 56 190 0.9 0.9 0.00 0.00 0.00 64 1009.9
20260505014903 56 183 0.9 0.9 0.00 0.00 0.00 64 1009.9
20260505014804 56 176 0.9 0.9 0.00 0.00 0.00 63 1009.9
20260505014703 57 165 0.9 1.7 0.00 0.00 0.00 63 1009.9
20260505014603 57 157 0.9 1.7 0.00 0.00 0.00 61 1009.9
20260505014503 58 152 0.9 1.7 0.00 0.00 0.00 59 1009.9
20260505014403 58 149 1.7 1.7 0.00 0.00 0.00 60 1009.9
20260505014304 58 146 1.7 1.7 0.00 0.00 0.00 60 1009.9
20260505014203 58 143 1.7 2.6 0.00 0.00 0.00 59 1009.9
20260505014103 58 139 1.7 2.6 0.00 0.00 0.00 59 1009.9
20260505014003 58 136 1.7 2.6 0.00 0.00 0.00 59 1009.9
20260505013904 58 135 1.7 2.6 0.00 0.00 0.00 58 1009.9
20260505013803 58 132 0.9 1.7 0.00 0.00 0.00 58 1009.9
20260505013703 58 128 0.0 1.7 0.00 0.00 0.00 58 1009.9
20260505013603 58 0 0.0 0.0 0.00 0.00 0.00 58 1009.9
20260505013503 58 0 0.0 0.0 0.00 0.00 0.00 58 1009.9
20260505013404 58 102 0.0 0.0 0.00 0.00 0.00 59 1009.9
20260505013304 58 102 0.0 0.0 0.00 0.00 0.00 59 1010.0
20260505013204 58 102 0.0 0.0 0.00 0.00 0.00 59 1010.0
20260505013103 58 102 0.0 0.0 0.00 0.00 0.00 59 1010.0
20260505013003 58 89 0.0 0.9 0.00 0.00 0.00 60 1010.0
20260505012903 58 85 0.0 0.9 0.00 0.00 0.00 61 1010.0
20260505012803 58 84 0.0 0.9 0.00 0.00 0.00 60 1010.0
20260505012704 58 84 0.0 0.9 0.00 0.00 0.00 60 1010.1
20260505012604 57 82 0.0 0.9 0.00 0.00 0.00 60 1010.1
20260505012503 57 78 0.0 0.9 0.00 0.00 0.00 60 1010.1
20260505012403 57 0 0.0 0.0 0.00 0.00 0.00 61 1010.1
20260505012304 57 0 0.0 0.0 0.00 0.00 0.00 60 1010.1
20260505012203 57 0 0.0 0.0 0.00 0.00 0.00 60 1010.1
20260505012104 57 0 0.0 0.0 0.00 0.00 0.00 60 1010.1
20260505012004 57 0 0.0 0.0 0.00 0.00 0.00 60 1010.1
20260505011903 57 0 0.0 0.0 0.00 0.00 0.00 60 1010.1
20260505011803 57 0 0.0 0.0 0.00 0.00 0.00 60 1010.1
20260505011703 57 0 0.0 0.0 0.00 0.00 0.00 60 1010.1
20260505011603 57 0 0.0 0.0 0.00 0.00 0.00 60 1010.2
20260505011503 57 0 0.0 0.0 0.00 0.00 0.00 60 1010.2
20260505011404 57 0 0.0 0.0 0.00 0.00 0.00 60 1010.2
20260505011304 57 0 0.0 0.0 0.00 0.00 0.00 60 1010.2
20260505011204 58 115 0.0 0.9 0.00 0.00 0.00 60 1010.2
20260505011103 58 121 0.0 1.7 0.00 0.00 0.00 59 1010.2
20260505011003 58 126 0.9 1.7 0.00 0.00 0.00 59 1010.2
20260505010903 58 130 0.9 1.7 0.00 0.00 0.00 59 1010.2
20260505010803 58 132 0.9 1.7 0.00 0.00 0.00 59 1010.3
20260505010704 58 136 0.9 1.7 0.00 0.00 0.00 60 1010.3
20260505010604 58 146 0.9 1.7 0.00 0.00 0.00 59 1010.3
20260505010504 58 158 0.9 1.7 0.00 0.00 0.00 59 1010.3
20260505010403 58 163 0.9 1.7 0.00 0.00 0.00 59 1010.4
20260505010303 58 168 1.7 1.7 0.00 0.00 0.00 59 1010.4
20260505010203 58 176 1.7 1.7 0.00 0.00 0.00 60 1010.4
20260505010104 58 182 0.9 1.7 0.00 0.00 0.00 60 1010.4
20260505010003 58 188 0.9 1.7 0.00 0.00 0.00 60 1010.4
20260505005904 58 192 0.9 1.7 0.00 0.00 0.00 59 1010.4
20260505005804 58 196 0.9 1.7 0.00 0.00 0.00 59 1010.6
20260505005703 58 200 0.0 0.9 0.00 0.00 0.00 58 1010.6
20260505005603 58 0 0.0 0.9 0.00 0.00 0.00 59 1010.6
20260505005503 58 236 0.0 1.7 0.00 0.00 0.00 59 1010.6
20260505005403 58 239 0.0 1.7 0.00 0.00 0.00 59 1010.6
20260505005304 58 243 0.0 1.7 0.00 0.00 0.00 59 1010.6
20260505005203 58 251 0.9 2.6 0.00 0.00 0.00 59 1010.6
20260505005104 58 256 0.9 2.6 0.00 0.00 0.00 59 1010.6
20260505005004 58 261 0.9 2.6 0.00 0.00 0.00 59 1010.6
20260505004904 58 266 0.9 2.6 0.00 0.00 0.00 60 1010.6
20260505004804 58 275 0.9 1.7 0.00 0.00 0.00 59 1010.7
20260505004703 58 280 0.9 1.7 0.00 0.00 0.00 58 1010.7
20260505004604 58 285 0.9 1.7 0.00 0.00 0.00 58 1010.7
20260505004504 58 289 0.0 1.7 0.00 0.00 0.00 58 1010.7
20260505004403 59 300 0.0 0.9 0.00 0.00 0.00 57 1010.8
20260505004303 59 308 0.0 0.9 0.00 0.00 0.00 57 1010.8
20260505004203 59 312 0.0 0.9 0.00 0.00 0.00 55 1010.8
20260505004103 59 312 0.0 0.9 0.00 0.00 0.00 55 1010.8
20260505004003 59 327 0.0 0.9 0.00 0.00 0.00 55 1010.8
20260505003903 59 324 0.0 2.6 0.00 0.00 0.00 54 1010.8
20260505003803 59 321 0.9 2.6 0.00 0.00 0.00 54 1010.8
20260505003704 59 319 0.9 2.6 0.00 0.00 0.00 55 1010.8
20260505003604 59 316 1.7 2.6 0.00 0.00 0.00 54 1010.8
20260505003504 59 312 1.7 2.6 0.00 0.00 0.00 55 1010.9
20260505003404 59 304 1.7 2.6 0.00 0.00 0.00 55 1010.9
20260505003303 59 301 1.7 2.6 0.00 0.00 0.00 55 1010.9
20260505003204 59 298 1.7 2.6 0.00 0.00 0.00 55 1010.9
20260505003103 59 297 1.7 3.5 0.00 0.00 0.00 55 1010.9
20260505003003 59 296 1.7 3.5 0.00 0.00 0.00 55 1011.0
20260505002903 59 296 1.7 3.5 0.00 0.00 0.00 55 1011.0
20260505002803 59 297 2.6 3.5 0.00 0.00 0.00 55 1011.0
20260505002704 59 299 2.6 4.3 0.00 0.00 0.00 55 1011.0
20260505002604 58 302 2.6 4.3 0.00 0.00 0.00 56 1011.1
20260505002503 59 307 2.6 4.3 0.00 0.00 0.00 56 1011.1
20260505002403 59 310 2.6 4.3 0.00 0.00 0.00 55 1011.1
20260505002304 59 312 2.6 3.5 0.00 0.00 0.00 55 1011.0
20260505002203 59 310 2.6 3.5 0.00 0.00 0.00 54 1011.0
20260505002104 59 307 2.6 3.5 0.00 0.00 0.00 55 1011.0
20260505002003 59 303 2.6 4.3 0.00 0.00 0.00 55 1011.0
20260505001903 59 300 2.6 4.3 0.00 0.00 0.00 54 1011.0
20260505001803 59 297 2.6 4.3 0.00 0.00 0.00 54 1011.1
20260505001703 59 294 2.6 4.3 0.00 0.00 0.00 54 1011.1
20260505001603 59 292 2.6 4.3 0.00 0.00 0.00 55 1011.2
20260505001503 59 291 2.6 3.5 0.00 0.00 0.00 55 1011.2
20260505001403 59 288 2.6 5.2 0.00 0.00 0.00 55 1011.2
20260505001303 59 286 2.6 5.2 0.00 0.00 0.00 55 1011.2
20260505001203 59 282 2.6 5.2 0.00 0.00 0.00 55 1011.3
20260505001103 59 277 2.6 5.2 0.00 0.00 0.00 55 1011.3
20260505001003 59 271 1.7 3.5 0.00 0.00 0.00 55 1011.3
20260505000904 59 266 0.9 3.5 0.00 0.00 0.00 56 1011.3
20260505000803 59 259 0.9 3.5 0.00 0.00 0.00 55 1011.3
20260505000703 59 250 0.9 2.6 0.00 0.00 0.00 55 1011.3
20260505000603 59 246 0.9 2.6 0.00 0.00 0.00 55 1011.3
20260505000503 59 245 0.9 2.6 0.00 0.00 0.00 56 1011.3
20260505000405 59 244 0.9 2.6 0.00 0.00 0.00 56 1011.4
20260505000303 59 245 0.9 2.6 0.00 0.00 0.00 56 1011.4
20260505000204 59 246 1.7 3.5 0.00 0.00 0.00 56 1011.4
20260505000103 59 245 1.7 3.5 0.00 0.00 0.00 56 1011.4
20260504235904 59 240 1.7 4.3 0.00 0.00 0.00 56 1011.4
20260504235804 59 237 1.7 5.2 0.00 0.00 0.00 57 1011.4
20260504235703 59 236 2.6 5.2 0.00 0.00 0.00 56 1011.4
20260504235603 59 236 2.6 5.2 0.00 0.00 0.00 56 1011.4
20260504235503 59 236 2.6 5.2 0.00 0.00 0.00 57 1011.4
20260504235404 59 236 2.6 5.2 0.00 0.00 0.00 56 1011.4
20260504235304 59 235 2.6 5.2 0.00 0.00 0.00 57 1011.4
20260504235203 59 235 2.6 5.2 0.00 0.00 0.00 57 1011.4
20260504235103 59 236 3.5 6.1 0.00 0.00 0.00 57 1011.4
20260504235004 58 239 3.5 6.1 0.00 0.00 0.00 57 1011.4
20260504234903 59 241 3.5 6.1 0.00 0.00 0.00 57 1011.4
20260504234803 59 244 3.5 6.1 0.00 0.00 0.00 56 1011.4
20260504234703 59 248 3.5 6.1 0.00 0.00 0.00 56 1011.4
20260504234604 59 252 3.5 6.1 0.00 0.00 0.00 56 1011.4
20260504234503 58 258 3.5 6.1 0.00 0.00 0.00 57 1011.4
20260504234403 58 265 3.5 5.2 0.00 0.00 0.00 58 1011.3
20260504234303 58 270 2.6 5.2 0.00 0.00 0.00 58 1011.3
20260504234204 58 276 2.6 5.2 0.00 0.00 0.00 59 1011.3
20260504234103 58 286 2.6 5.2 0.00 0.00 0.00 60 1011.3
20260504234003 58 295 2.6 5.2 0.00 0.00 0.00 60 1011.3
20260504233903 57 301 2.6 5.2 0.00 0.00 0.00 60 1011.2
20260504233803 57 308 2.6 5.2 0.00 0.00 0.00 61 1011.2
20260504233703 57 314 2.6 4.3 0.00 0.00 0.00 61 1011.2
20260504233603 57 320 2.6 4.3 0.00 0.00 0.00 61 1011.2
20260504233503 57 326 1.7 4.3 0.00 0.00 0.00 62 1011.2
20260504233404 57 334 1.7 4.3 0.00 0.00 0.00 60 1011.2
20260504233303 58 343 1.7 2.6 0.00 0.00 0.00 59 1011.2
20260504233203 58 349 1.7 2.6 0.00 0.00 0.00 59 1011.2
20260504233103 58 354 0.9 2.6 0.00 0.00 0.00 59 1011.2
20260504233003 58 358 1.7 2.6 0.00 0.00 0.00 58 1011.2
20260504232904 58 1 1.7 2.6 0.00 0.00 0.00 58 1011.2
20260504232803 58 5 1.7 3.5 0.00 0.00 0.00 58 1011.2
20260504232703 58 9 1.7 3.5 0.00 0.00 0.00 58 1011.2
20260504232603 58 14 1.7 3.5 0.00 0.00 0.00 57 1011.2
20260504232504 59 18 1.7 3.5 0.00 0.00 0.00 57 1011.2
20260504232403 59 22 0.9 2.6 0.00 0.00 0.00 56 1011.2
20260504232304 59 27 0.0 1.7 0.00 0.00 0.00 55 1011.1
20260504232203 60 32 0.0 1.7 0.00 0.00 0.00 54 1011.1
20260504232104 60 0 0.0 0.0 0.00 0.00 0.00 54 1011.1
20260504232004 60 68 0.0 0.9 0.00 0.00 0.00 54 1011.1
20260504231904 60 73 0.0 0.9 0.00 0.00 0.00 54 1011.1
20260504231803 60 77 0.0 0.9 0.00 0.00 0.00 54 1011.1
20260504231703 60 83 0.9 1.7 0.00 0.00 0.00 54 1011.0
20260504231603 60 89 0.9 1.7 0.00 0.00 0.00 54 1011.0
20260504231504 60 94 0.9 1.7 0.00 0.00 0.00 54 1011.0
20260504231404 60 100 1.7 1.7 0.00 0.00 0.00 54 1011.0
20260504231304 60 106 1.7 1.7 0.00 0.00 0.00 55 1011.0
20260504231203 60 114 1.7 1.7 0.00 0.00 0.00 54 1011.0
20260504231103 60 121 1.7 1.7 0.00 0.00 0.00 54 1011.0
20260504231003 60 126 0.9 1.7 0.00 0.00 0.00 54 1011.0
20260504230903 60 131 0.9 1.7 0.00 0.00 0.00 54 1011.0
20260504230804 60 138 0.9 1.7 0.00 0.00 0.00 54 1011.0
20260504230703 60 153 0.9 1.7 0.00 0.00 0.00 54 1011.1
20260504230603 60 161 0.9 2.6 0.00 0.00 0.00 54 1011.1
20260504230503 60 167 1.7 2.6 0.00 0.00 0.00 54 1011.1
20260504230404 60 171 1.7 2.6 0.00 0.00 0.00 53 1011.1
20260504230303 60 176 1.7 2.6 0.00 0.00 0.00 54 1011.1
20260504230203 60 180 1.7 2.6 0.00 0.00 0.00 54 1011.1
20260504230103 60 184 0.9 2.6 0.00 0.00 0.00 53 1011.1
20260504230003 60 189 0.0 1.7 0.00 0.00 0.00 54 1011.1
20260504225903 60 193 0.0 0.9 0.00 0.00 0.00 54 1011.1
20260504225804 60 175 0.0 0.9 0.00 0.00 0.00 54 1011.1
20260504225703 60 174 0.0 0.9 0.00 0.00 0.00 54 1011.2
20260504225604 60 174 0.0 0.9 0.00 0.00 0.00 54 1011.2
20260504225504 60 174 0.0 0.9 0.00 0.00 0.00 54 1011.2
20260504225403 60 177 0.0 0.9 0.00 0.00 0.00 54 1011.2
20260504225304 60 181 0.0 0.9 0.00 0.00 0.00 54 1011.2
20260504225204 60 181 0.0 0.9 0.00 0.00 0.00 53 1011.2
20260504225103 60 188 0.0 1.7 0.00 0.00 0.00 53 1011.2
20260504225003 60 194 0.0 1.7 0.00 0.00 0.00 54 1011.2
20260504224903 60 193 0.9 1.7 0.00 0.00 0.00 53 1011.2
20260504224803 61 193 0.9 1.7 0.00 0.00 0.00 52 1011.2
20260504224703 60 189 0.9 1.7 0.00 0.00 0.00 52 1011.3
20260504224603 60 185 0.9 1.7 0.00 0.00 0.00 53 1011.3
20260504224504 60 183 0.9 1.7 0.00 0.00 0.00 53 1011.3
20260504224403 60 183 0.9 1.7 0.00 0.00 0.00 53 1011.3
20260504224303 60 184 0.9 2.6 0.00 0.00 0.00 54 1011.3
20260504224203 61 183 0.9 2.6 0.00 0.00 0.00 53 1011.3
20260504224104 61 181 0.9 2.6 0.00 0.00 0.00 53 1011.3
20260504224004 61 179 1.7 2.6 0.00 0.00 0.00 52 1011.3
20260504223903 61 176 1.7 2.6 0.00 0.00 0.00 51 1011.4
20260504223803 61 172 1.7 2.6 0.00 0.00 0.00 51 1011.4
20260504223704 61 172 1.7 2.6 0.00 0.00 0.00 51 1011.4
20260504223603 61 172 1.7 2.6 0.00 0.00 0.00 50 1011.4
20260504223503 61 173 1.7 2.6 0.00 0.00 0.00 51 1011.4
20260504223403 61 173 1.7 2.6 0.00 0.00 0.00 51 1011.4
20260504223303 61 173 1.7 2.6 0.00 0.00 0.00 51 1011.4
20260504223203 61 173 1.7 2.6 0.00 0.00 0.00 50 1011.4
20260504223103 61 175 1.7 2.6 0.00 0.00 0.00 50 1011.4
20260504223004 61 177 1.7 2.6 0.00 0.00 0.00 50 1011.4
20260504222904 61 180 1.7 2.6 0.00 0.00 0.00 50 1011.3
20260504222803 61 183 0.9 2.6 0.00 0.00 0.00 50 1011.3
20260504222703 61 188 0.9 1.7 0.00 0.00 0.00 50 1011.3
20260504222604 61 193 0.0 1.7 0.00 0.00 0.00 51 1011.3
20260504222504 61 0 0.0 0.0 0.00 0.00 0.00 51 1011.4
20260504222403 60 0 0.0 0.0 0.00 0.00 0.00 52 1011.4
20260504222304 60 0 0.0 0.0 0.00 0.00 0.00 53 1011.4
20260504222203 61 242 0.0 0.0 0.00 0.00 0.00 52 1011.4
20260504222103 61 247 0.0 0.9 0.00 0.00 0.00 51 1011.4
20260504222003 61 249 0.0 0.9 0.00 0.00 0.00 51 1011.4
20260504221903 60 249 0.0 0.9 0.00 0.00 0.00 52 1011.4
20260504221803 60 256 0.0 0.9 0.00 0.00 0.00 52 1011.4
20260504221703 61 264 0.0 0.9 0.00 0.00 0.00 51 1011.4
20260504221603 61 271 0.0 0.9 0.00 0.00 0.00 51 1011.4
20260504221503 61 271 0.0 0.9 0.00 0.00 0.00 50 1011.4
20260504221404 61 0 0.0 0.0 0.00 0.00 0.00 50 1011.4
20260504221303 61 0 0.0 0.0 0.00 0.00 0.00 51 1011.4
20260504221203 60 0 0.0 0.0 0.00 0.00 0.00 52 1011.4
20260504221103 0 0.0 0.0 0.00 0.00 0.00
20260504220904 60 0 0.0 0.0 0.00 0.00 0.00 54 1011.4
20260504220803 60 0 0.0 0.0 0.00 0.00 0.00 54 1011.4
20260504220703 60 0 0.0 0.0 0.00 0.00 0.00 53 1011.4
20260504220603 60 0 0.0 0.0 0.00 0.00 0.00 52 1011.4
20260504220504 61 0 0.0 0.0 0.00 0.00 0.00 52 1011.5
20260504220403 61 0 0.0 0.0 0.00 0.00 0.00 52 1011.5
20260504220303 61 0 0.0 0.0 0.00 0.00 0.00 52 1011.5
20260504220203 61 0 0.0 0.0 0.00 0.00 0.00 52 1011.5
20260504220103 61 0 0.0 0.0 0.00 0.00 0.00 52 1011.5
20260504220004 61 227 0.0 0.9 0.00 0.00 0.00 52 1011.5
20260504215903 61 232 0.0 1.7 0.00 0.00 0.00 51 1011.5
20260504215803 61 237 0.9 1.7 0.00 0.00 0.00 52 1011.5
20260504215703 61 241 0.9 1.7 0.00 0.00 0.00 51 1011.5
20260504215603 62 245 1.7 1.7 0.00 0.00 0.00 50 1011.5
20260504215503 62 253 1.7 2.6 0.00 0.00 0.00 49 1011.5
20260504215403 62 260 1.7 2.6 0.00 0.00 0.00 49 1011.5
20260504215304 62 268 1.7 2.6 0.00 0.00 0.00 48 1011.5
20260504215203 62 272 1.7 2.6 0.00 0.00 0.00 48 1011.5
20260504215103 62 276 1.7 2.6 0.00 0.00 0.00 48 1011.6
20260504215003 62 280 0.9 2.6 0.00 0.00 0.00 49 1011.6
20260504214903 62 284 0.0 1.7 0.00 0.00 0.00 49 1011.6
20260504214803 62 290 0.0 0.9 0.00 0.00 0.00 49 1011.6
20260504214703 62 0 0.0 0.0 0.00 0.00 0.00 48 1011.6
20260504214603 62 0 0.0 0.0 0.00 0.00 0.00 47 1011.6
20260504214504 62 0 0.0 0.0 0.00 0.00 0.00 48 1011.6
20260504214403 62 0 0.0 0.0 0.00 0.00 0.00 49 1011.6
20260504214303 61 0 0.0 0.0 0.00 0.00 0.00 49 1011.6
20260504214203 61 0 0.0 0.0 0.00 0.00 0.00 50 1011.6
20260504214104 61 0 0.0 0.0 0.00 0.00 0.00 50 1011.6
20260504214003 61 336 0.0 0.9 0.00 0.00 0.00 50 1011.6
20260504213903 61 340 0.0 1.7 0.00 0.00 0.00 50 1011.6
20260504213804 61 340 0.0 1.7 0.00 0.00 0.00 51 1011.6
20260504213703 61 341 0.0 1.7 0.00 0.00 0.00 51 1011.6
20260504213603 62 341 0.0 1.7 0.00 0.00 0.00 50 1011.6
20260504213503 62 342 0.0 0.9 0.00 0.00 0.00 50 1011.7
20260504213403 62 346 0.0 0.0 0.00 0.00 0.00 51 1011.7
20260504213303 62 0 0.0 0.0 0.00 0.00 0.00 51 1011.7
20260504213203 62 0 0.0 0.0 0.00 0.00 0.00 50 1011.7
20260504213104 62 0 0.0 0.0 0.00 0.00 0.00 50 1011.7
20260504213003 62 0 0.0 0.0 0.00 0.00 0.00 51 1011.7
20260504212903 62 0 0.0 0.0 0.00 0.00 0.00 50 1011.7
20260504212803 62 0 0.0 0.0 0.00 0.00 0.00 50 1011.7
20260504212704 62 0 0.0 0.0 0.00 0.00 0.00 50 1011.7
20260504212603 62 0 0.0 0.0 0.00 0.00 0.00 50 1011.7
20260504212503 62 0 0.0 0.0 0.00 0.00 0.00 49 1011.7
20260504212403 62 0 0.0 0.0 0.00 0.00 0.00 48 1011.7
20260504212304 62 0 0.0 0.0 0.00 0.00 0.00 48 1011.7
20260504212203 62 0 0.0 0.0 0.00 0.00 0.00 49 1011.7
20260504212103 63 5 0.0 0.9 0.00 0.00 0.00 49 1011.7
20260504212003 63 9 0.0 0.9 0.00 0.00 0.00 49 1011.7
20260504211904 63 12 0.0 0.9 0.00 0.00 0.00 49 1011.7
20260504211803 63 12 0.0 0.9 0.00 0.00 0.00 49 1011.7
20260504211703 63 15 0.0 0.9 0.00 0.00 0.00 49 1011.6
20260504211603 63 19 0.0 0.9 0.00 0.00 0.00 49 1011.6
20260504211503 63 0 0.0 0.0 0.00 0.00 0.00 49 1011.6
20260504211403 63 0 0.0 0.0 0.00 0.00 0.00 49 1011.6
20260504211303 63 0 0.0 0.0 0.00 0.00 0.00 48 1011.6
20260504211203 64 0 0.0 0.0 0.00 0.00 0.00 47 1011.6
20260504211103 64 0 0.0 0.0 0.00 0.00 0.00 48 1011.6
20260504211003 64 45 0.0 0.9 0.00 0.00 0.00 47 1011.6
20260504210904 64 40 0.0 0.9 0.00 0.00 0.00 46 1011.7
20260504210803 64 36 0.0 0.9 0.00 0.00 0.00 46 1011.7
20260504210703 63 36 0.0 0.9 0.00 0.00 0.00 47 1011.7
20260504210603 63 33 0.0 0.9 0.00 0.00 0.00 47 1011.7
20260504210504 63 32 0.0 0.9 0.00 0.00 0.00 48 1011.7
20260504210403 63 33 0.0 0.9 0.00 0.00 0.00 48 1011.7
20260504210303 63 36 0.0 0.9 0.00 0.00 0.00 48 1011.7
20260504210204 63 43 0.0 1.7 0.00 0.00 0.00 48 1011.7
20260504210104 63 45 0.0 1.7 0.00 0.00 0.00 48 1011.7
20260504210004 63 45 0.0 1.7 0.00 0.00 0.00 48 1011.7
20260504205903 62 45 0.0 1.7 0.00 0.00 0.00 48 1011.7
20260504205803 63 0 0.0 0.0 0.00 0.00 0.00 48 1011.7
20260504205704 62 0 0.0 0.0 0.00 0.00 0.00 49 1011.7
20260504205604 63 0 0.0 0.0 0.00 0.00 0.00 49 1011.7
20260504205504 63 0 0.0 0.0 0.00 0.00 0.00 49 1011.8
20260504205403 63 0 0.0 0.0 0.00 0.00 0.00 49 1011.8
20260504205304 63 0 0.0 0.0 0.00 0.00 0.00 48 1011.8
20260504205204 63 0 0.0 0.0 0.00 0.00 0.00 48 1011.8
20260504205104 63 0 0.0 0.0 0.00 0.00 0.00 47 1011.8
20260504205004 63 0 0.0 0.0 0.00 0.00 0.00 48 1011.8
20260504204903 63 104 0.0 0.0 0.00 0.00 0.00 48 1011.8
20260504204803 63 104 0.0 0.0 0.00 0.00 0.00 48 1011.8
20260504204703 64 110 0.0 0.9 0.00 0.00 0.00 47 1011.8
20260504204604 64 116 0.0 1.7 0.00 0.00 0.00 46 1011.8
20260504204504 63 119 0.0 1.7 0.00 0.00 0.00 46 1011.8
20260504204403 63 119 0.0 1.7 0.00 0.00 0.00 47 1011.8
20260504204303 63 120 0.0 1.7 0.00 0.00 0.00 47 1011.8
20260504204203 63 126 0.0 1.7 0.00 0.00 0.00 47 1011.9
20260504204104 64 132 0.0 0.9 0.00 0.00 0.00 47 1011.9
20260504204003 64 132 0.0 0.9 0.00 0.00 0.00 47 1011.9
20260504203903 64 133 0.0 0.9 0.00 0.00 0.00 47 1011.9
20260504203803 64 0 0.0 0.0 0.00 0.00 0.00 47 1011.9
20260504203704 64 0 0.0 0.0 0.00 0.00 0.00 46 1011.9
20260504203603 64 0 0.0 0.0 0.00 0.00 0.00 48 1011.9
20260504203503 64 0 0.0 0.0 0.00 0.00 0.00 47 1011.9
20260504203403 64 0 0.0 0.0 0.00 0.00 0.00 46 1011.9
20260504203303 64 129 0.0 0.9 0.00 0.00 0.00 46 1011.9
20260504203203 64 129 0.0 0.9 0.00 0.00 0.00 46 1011.9
20260504203103 64 129 0.0 0.9 0.00 0.00 0.00 46 1011.9
20260504203004 64 127 0.0 1.7 0.00 0.00 0.00 45 1011.9
20260504202903 64 119 0.9 2.6 0.00 0.00 0.00 46 1011.9
20260504202803 64 115 0.9 2.6 0.00 0.00 0.00 46 1011.9
20260504202703 64 112 1.7 2.6 0.00 0.00 0.00 46 1011.8
20260504202603 64 109 1.7 2.6 0.00 0.00 0.00 47 1011.8
20260504202504 64 100 1.7 2.6 0.00 0.00 0.00 46 1011.8
20260504202403 64 92 1.7 2.6 0.00 0.00 0.00 46 1011.8
20260504202304 65 85 1.7 2.6 0.00 0.00 0.00 45 1011.8
20260504202203 65 83 0.9 2.6 0.00 0.00 0.00 43 1011.8
20260504202104 65 73 0.9 4.3 0.00 0.00 0.00 43 1011.8
20260504202003 66 66 1.7 7.8 0.00 0.00 0.00 42 1011.8
20260504201903 66 65 2.6 7.8 0.00 0.00 0.00 41 1011.8
20260504201804 67 66 2.6 7.8 0.00 0.00 0.00 39 1011.7
20260504201703 67 68 3.5 7.8 0.00 0.00 0.00 37 1011.7
20260504201604 67 69 2.6 7.8 0.00 0.00 0.00 38 1011.8
20260504201503 67 69 1.7 5.2 0.00 0.00 0.00 38 1011.8
20260504201403 67 67 1.7 5.2 0.00 0.00 0.00 38 1011.8
20260504201303 67 65 1.7 4.3 0.00 0.00 0.00 38 1011.8
20260504201204 67 64 1.7 5.2 0.00 0.00 0.00 38 1011.8
20260504201103 67 65 1.7 5.2 0.00 0.00 0.00 38 1011.8
20260504201003 67 66 2.6 5.2 0.00 0.00 0.00 38 1011.8
20260504200903 67 67 2.6 5.2 0.00 0.00 0.00 38 1011.8
20260504200803 67 68 2.6 5.2 0.00 0.00 0.00 38 1011.8
20260504200703 67 69 2.6 5.2 0.00 0.00 0.00 38 1011.7
20260504200603 67 70 1.7 5.2 0.00 0.00 0.00 39 1011.7
20260504200503 67 70 1.7 4.3 0.00 0.00 0.00 38 1011.7
20260504200404 67 70 1.7 4.3 0.00 0.00 0.00 38 1011.7
20260504200303 67 68 1.7 4.3 0.00 0.00 0.00 38 1011.7
20260504200203 67 65 1.7 5.2 0.00 0.00 0.00 38 1011.7
20260504200103 67 65 2.6 5.2 0.00 0.00 0.00 38 1011.7
20260504200004 67 67 3.5 5.2 0.00 0.00 0.00 38 1011.7
20260504195903 67 69 3.5 5.2 0.00 0.00 0.00 37 1011.7
20260504195803 67 72 3.5 5.2 0.00 0.00 0.00 38 1011.7
20260504195703 67 74 2.6 4.3 0.00 0.00 0.00 38 1011.8
20260504195604 67 73 1.7 3.5 0.00 0.00 0.00 38 1011.8
20260504195503 67 71 1.7 3.5 0.00 0.00 0.00 38 1011.8
20260504195403 67 68 1.7 7.0 0.00 0.00 0.00 39 1011.8
20260504195304 67 68 2.6 7.0 0.00 0.00 0.00 39 1011.7
20260504195203 67 68 2.6 7.0 0.00 0.00 0.00 39 1011.7
20260504195103 67 70 3.5 7.0 0.00 0.00 0.00 39 1011.7
20260504195003 67 70 2.6 7.0 0.00 0.00 0.00 39 1011.7
20260504194904 67 69 3.5 6.1 0.00 0.00 0.00 39 1011.7
20260504194803 66 70 2.6 6.1 0.00 0.00 0.00 39 1011.7
20260504194703 66 69 2.6 5.2 0.00 0.00 0.00 39 1011.7
20260504194603 66 69 1.7 5.2 0.00 0.00 0.00 39 1011.7
20260504194504 67 72 1.7 5.2 0.00 0.00 0.00 39 1011.7
20260504194403 67 73 1.7 5.2 0.00 0.00 0.00 39 1011.7
20260504194303 67 72 1.7 5.2 0.00 0.00 0.00 38 1011.7
20260504194203 67 71 2.6 5.2 0.00 0.00 0.00 38 1011.7
20260504194104 67 70 2.6 4.3 0.00 0.00 0.00 39 1011.7
20260504194003 67 68 2.6 4.3 0.00 0.00 0.00 39 1011.7
20260504193903 67 68 2.6 5.2 0.00 0.00 0.00 39 1011.7
20260504193803 67 69 2.6 5.2 0.00 0.00 0.00 38 1011.7
20260504193703 67 70 2.6 7.0 0.00 0.00 0.00 39 1011.7
20260504193603 67 71 3.5 8.7 0.00 0.00 0.00 38 1011.7
20260504193503 67 73 3.5 8.7 0.00 0.00 0.00 38 1011.8
20260504193403 67 74 3.5 8.7 0.00 0.00 0.00 38 1011.8
20260504193303 67 75 2.6 8.7 0.00 0.00 0.00 38 1011.8
20260504193203 66 78 2.6 7.8 0.00 0.00 0.00 39 1011.8
20260504193103 66 84 2.6 6.1 0.00 0.00 0.00 40 1011.8
20260504193004 66 91 2.6 9.6 0.00 0.00 0.00 41 1011.8
20260504192904 66 93 3.5 9.6 0.00 0.00 0.00 41 1011.8
20260504192803 66 92 3.5 9.6 0.00 0.00 0.00 40 1011.8
20260504192703 66 91 2.6 9.6 0.00 0.00 0.00 40 1011.8
20260504192604 66 87 1.7 5.2 0.00 0.00 0.00 41 1011.8
20260504192503 66 81 0.9 3.5 0.00 0.00 0.00 40 1011.9
20260504192403 67 75 0.9 2.6 0.00 0.00 0.00 39 1011.9
20260504192304 67 69 0.0 1.7 0.00 0.00 0.00 39 1011.9
20260504192204 67 63 0.9 1.7 0.00 0.00 0.00 38 1011.9
20260504192104 67 56 0.9 4.3 0.00 0.00 0.00 38 1012.1
20260504192003 67 55 1.7 4.3 0.00 0.00 0.00 37 1012.1
20260504191903 68 54 1.7 5.2 0.00 0.00 0.00 37 1012.1
20260504191804 68 52 2.6 5.2 0.00 0.00 0.00 36 1012.1
20260504191703 68 48 2.6 5.2 0.00 0.00 0.00 37 1012.1
20260504191603 68 44 3.5 6.1 0.00 0.00 0.00 37 1012.1
20260504191503 68 38 3.5 6.1 0.00 0.00 0.00 37 1012.1
20260504191403 68 33 3.5 6.1 0.00 0.00 0.00 36 1012.2
20260504191303 68 30 2.6 6.1 0.00 0.00 0.00 36 1012.2
20260504191203 68 27 1.7 5.2 0.00 0.00 0.00 36 1012.2
20260504191104 67 23 0.9 4.3 0.00 0.00 0.00 37 1012.2
20260504191003 67 16 0.9 1.7 0.00 0.00 0.00 38 1012.2
20260504190903 68 11 0.9 2.6 0.00 0.00 0.00 38 1012.2
20260504190803 68 12 0.9 3.5 0.00 0.00 0.00 37 1012.2
20260504190704 68 13 1.7 3.5 0.00 0.00 0.00 37 1012.2
20260504190603 68 16 1.7 3.5 0.00 0.00 0.00 37 1012.2
20260504190503 68 18 1.7 3.5 0.00 0.00 0.00 37 1012.2
20260504190403 68 18 1.7 3.5 0.00 0.00 0.00 37 1012.2
20260504190304 68 19 1.7 3.5 0.00 0.00 0.00 37 1012.2
20260504190203 68 19 1.7 3.5 0.00 0.00 0.00 37 1012.2
20260504190003 68 21 1.7 4.3 0.00 0.00 0.00 37 1012.2
20260504185904 68 20 1.7 4.3 0.00 0.00 0.00 36 1012.2
20260504185803 68 21 1.7 4.3 0.00 0.00 0.00 36 1012.2
20260504185703 68 25 1.7 3.5 0.00 0.00 0.00 37 1012.2
20260504185603 67 30 2.6 6.1 0.00 0.00 0.00 38 1012.2
20260504185504 68 35 2.6 6.1 0.00 0.00 0.00 38 1012.2
20260504185403 68 39 2.6 6.1 0.00 0.00 0.00 37 1012.1
20260504185304 68 42 2.6 6.1 0.00 0.00 0.00 37 1012.2
20260504185203 67 46 2.6 5.2 0.00 0.00 0.00 38 1012.2
20260504185104 67 47 2.6 4.3 0.00 0.00 0.00 39 1012.2
20260504185004 67 44 2.6 5.2 0.00 0.00 0.00 40 1012.2
20260504184903 68 41 3.5 5.2 0.00 0.00 0.00 38 1012.2
20260504184803 68 39 2.6 5.2 0.00 0.00 0.00 38 1012.1
20260504184703 68 36 2.6 5.2 0.00 0.00 0.00 38 1012.1
20260504184604 68 34 1.7 4.3 0.00 0.00 0.00 37 1012.1
20260504184503 68 33 1.7 3.5 0.00 0.00 0.00 38 1012.1
20260504184403 68 33 1.7 3.5 0.00 0.00 0.00 38 1012.1
20260504184303 68 35 1.7 2.6 0.00 0.00 0.00 37 1012.1
20260504184203 68 36 1.7 3.5 0.00 0.00 0.00 38 1012.1
20260504184103 68 34 1.7 3.5 0.00 0.00 0.00 39 1012.1
20260504184003 68 32 0.9 3.5 0.00 0.00 0.00 38 1012.1
20260504183903 68 28 0.9 3.5 0.00 0.00 0.00 38 1012.1
20260504183803 68 22 0.9 1.7 0.00 0.00 0.00 38 1012.1
20260504183703 68 16 0.9 1.7 0.00 0.00 0.00 38 1012.1
20260504183603 68 14 0.9 1.7 0.00 0.00 0.00 37 1012.1
20260504183504 68 11 0.9 1.7 0.00 0.00 0.00 37 1012.1
20260504183403 68 8 0.9 1.7 0.00 0.00 0.00 37 1012.1
20260504183303 68 5 0.9 3.5 0.00 0.00 0.00 36 1012.1
20260504183203 68 3 0.9 3.5 0.00 0.00 0.00 36 1012.1
20260504183104 68 2 0.9 3.5 0.00 0.00 0.00 37 1012.1
20260504183003 68 1 1.7 4.3 0.00 0.00 0.00 37 1012.1
20260504182903 68 360 1.7 4.3 0.00 0.00 0.00 38 1012.2
20260504182803 68 359 1.7 4.3 0.00 0.00 0.00 38 1012.2
20260504182704 68 359 0.9 4.3 0.00 0.00 0.00 37 1012.2
20260504182603 68 358 0.0 1.7 0.00 0.00 0.00 37 1012.2
20260504182504 68 352 0.0 1.7 0.00 0.00 0.00 37 1012.1
20260504182403 68 347 0.0 1.7 0.00 0.00 0.00 37 1012.1
20260504182304 68 343 0.9 2.6 0.00 0.00 0.00 37 1012.1
20260504182203 68 340 0.9 2.6 0.00 0.00 0.00 37 1012.1
20260504182104 68 338 0.9 2.6 0.00 0.00 0.00 37 1012.1
20260504182004 68 336 0.9 2.6 0.00 0.00 0.00 36 1012.1
20260504181904 68 333 0.9 2.6 0.00 0.00 0.00 37 1012.1
20260504181803 68 333 0.9 1.7 0.00 0.00 0.00 37 1012.1
20260504181703 68 334 0.9 3.5 0.00 0.00 0.00 37 1012.1
20260504181603 68 333 1.7 3.5 0.00 0.00 0.00 36 1012.1
20260504181503 68 333 1.7 3.5 0.00 0.00 0.00 37 1012.1
20260504181403 68 331 1.7 3.5 0.00 0.00 0.00 37 1012.1
20260504181303 68 328 0.9 2.6 0.00 0.00 0.00 37 1012.1
20260504181204 68 325 0.9 2.6 0.00 0.00 0.00 37 1012.1
20260504181103 68 323 0.9 2.6 0.00 0.00 0.00 37 1012.1
20260504181003 68 323 1.7 3.5 0.00 0.00 0.00 36 1012.1
20260504180903 68 322 0.9 3.5 0.00 0.00 0.00 37 1012.1
20260504180803 68 321 0.9 3.5 0.00 0.00 0.00 37 1012.1
20260504180703 68 318 0.9 3.5 0.00 0.00 0.00 38 1012.1
20260504180603 68 311 0.9 1.7 0.00 0.00 0.00 38 1012.1
20260504180504 68 309 0.9 2.6 0.00 0.00 0.00 38 1012.1
20260504180404 68 307 1.7 2.6 0.00 0.00 0.00 38 1012.1
20260504180303 68 305 1.7 2.6 0.00 0.00 0.00 38 1012.1
20260504180203 68 305 1.7 2.6 0.00 0.00 0.00 38 1012.1
20260504180104 68 304 1.7 3.5 0.00 0.00 0.00 38 1012.1
20260504180003 68 303 1.7 3.5 0.00 0.00 0.00 39 1012.1
20260504175903 68 302 1.7 3.5 0.00 0.00 0.00 38 1012.1
20260504175803 68 300 1.7 3.5 0.00 0.00 0.00 38 1012.1
20260504175704 68 297 1.7 3.5 0.00 0.00 0.00 38 1012.1
20260504175603 68 294 1.7 3.5 0.00 0.00 0.00 38 1012.1
20260504175503 68 292 1.7 2.6 0.00 0.00 0.00 38 1012.1
20260504175403 68 293 1.7 3.5 0.00 0.00 0.00 38 1012.1
20260504175304 68 296 1.7 3.5 0.00 0.00 0.00 38 1012.1
20260504175203 68 298 1.7 3.5 0.00 0.00 0.00 37 1012.1
20260504175103 69 300 1.7 3.5 0.00 0.00 0.00 37 1012.1
20260504175004 69 301 1.7 3.5 0.00 0.00 0.00 37 1012.1
20260504174903 69 302 1.7 3.5 0.00 0.00 0.00 37 1012.1
20260504174803 69 301 0.9 2.6 0.00 0.00 0.00 37 1012.1
20260504174703 69 299 0.9 2.6 0.00 0.00 0.00 37 1012.1
20260504174604 68 299 1.7 2.6 0.00 0.00 0.00 37 1012.1
20260504174503 68 299 1.7 2.6 0.00 0.00 0.00 38 1012.1
20260504174403 68 297 1.7 2.6 0.00 0.00 0.00 37 1011.9
20260504174303 68 296 1.7 2.6 0.00 0.00 0.00 37 1011.9
20260504174204 68 293 1.7 3.5 0.00 0.00 0.00 37 1011.9
20260504174103 68 291 1.7 3.5 0.00 0.00 0.00 38 1011.9
20260504174003 68 290 1.7 3.5 0.00 0.00 0.00 38 1011.9
20260504173903 68 289 1.7 3.5 0.00 0.00 0.00 39 1011.9
20260504173803 68 289 1.7 3.5 0.00 0.00 0.00 38 1011.9
20260504173703 68 289 1.7 2.6 0.00 0.00 0.00 40 1011.9
20260504173603 68 286 1.7 2.6 0.00 0.00 0.00 39 1011.9
20260504173504 69 285 1.7 1.7 0.00 0.00 0.00 38 1011.9
20260504173404 69 284 1.7 1.7 0.00 0.00 0.00 37 1011.9
20260504173303 69 283 1.7 2.6 0.00 0.00 0.00 38 1011.9
20260504173203 69 286 0.9 2.6 0.00 0.00 0.00 37 1011.9
20260504173104 69 289 0.9 2.6 0.00 0.00 0.00 38 1011.9
20260504173003 69 292 0.9 2.6 0.00 0.00 0.00 38 1011.9
20260504172903 69 298 0.9 2.6 0.00 0.00 0.00 37 1011.9
20260504172803 69 303 0.9 1.7 0.00 0.00 0.00 36 1011.9
20260504172704 69 309 0.9 1.7 0.00 0.00 0.00 36 1011.9
20260504172603 69 311 0.9 1.7 0.00 0.00 0.00 36 1011.9
20260504172503 70 312 0.9 1.7 0.00 0.00 0.00 37 1011.9
20260504172404 70 306 0.9 3.5 0.00 0.00 0.00 36 1011.9
20260504172304 70 305 0.9 3.5 0.00 0.00 0.00 35 1011.9
20260504172203 70 303 0.9 3.5 0.00 0.00 0.00 35 1011.9
20260504172103 70 304 0.9 3.5 0.00 0.00 0.00 35 1011.9
20260504172004 70 308 0.9 1.7 0.00 0.00 0.00 36 1011.9
20260504171903 70 309 0.0 1.7 0.00 0.00 0.00 35 1011.9
20260504171803 70 320 0.0 1.7 0.00 0.00 0.00 36 1011.9
20260504171703 70 332 0.9 2.6 0.00 0.00 0.00 36 1011.9
20260504171603 70 336 0.9 2.6 0.00 0.00 0.00 36 1011.9
20260504171503 70 335 1.7 2.6 0.00 0.00 0.00 35 1011.9
20260504171403 70 337 1.7 3.5 0.00 0.00 0.00 36 1011.9
20260504171304 70 339 1.7 3.5 0.00 0.00 0.00 36 1011.9
20260504171203 70 340 1.7 3.5 0.00 0.00 0.00 34 1011.9
20260504171103 70 342 1.7 3.5 0.00 0.00 0.00 34 1011.9
20260504171003 70 347 1.7 3.5 0.00 0.00 0.00 35 1011.9
20260504170903 70 349 0.9 3.5 0.00 0.00 0.00 36 1011.9
20260504170803 70 350 1.7 3.5 0.00 0.00 0.00 35 1012.1
20260504170703 70 351 1.7 3.5 0.00 0.00 0.00 36 1012.1
20260504170603 70 352 1.7 3.5 0.00 0.00 0.00 37 1012.1
20260504170504 70 354 1.7 3.5 0.00 0.00 0.00 36 1012.1
20260504170403 70 358 0.9 2.6 0.00 0.00 0.00 37 1011.9
20260504170303 70 0 0.9 2.6 0.00 0.00 0.00 37 1011.9
20260504170203 70 2 0.9 2.6 0.00 0.00 0.00 36 1011.9
20260504170104 70 4 0.0 2.6 0.00 0.00 0.00 37 1011.9
20260504160403 72 358 3.5 7.0 0.00 0.00 0.00 32 1012.1
20260504160303 72 357 3.5 7.0 0.00 0.00 0.00 32 1012.1
20260504160203 72 357 3.5 7.0 0.00 0.00 0.00 32 1012.1
20260504160104 72 358 3.5 7.0 0.00 0.00 0.00 32 1012.1
20260504151104 74 52 0.0 2.6 0.00 0.00 0.00 32 1012.4
20260504151004 74 51 0.0 3.5 0.00 0.00 0.00 32 1012.4
20260504150904 73 55 0.9 3.5 0.00 0.00 0.00 33 1012.4
20260504150803 73 56 1.7 3.5 0.00 0.00 0.00 33 1012.4
20260504150703 73 54 1.7 3.5 0.00 0.00 0.00 32 1012.4
20260504150603 73 51 2.6 5.2 0.00 0.00 0.00 33 1012.4
20260504150503 74 47 2.6 5.2 0.00 0.00 0.00 33 1012.5
20260504150403 74 42 1.7 5.2 0.00 0.00 0.00 33 1012.5
20260504150304 74 36 1.7 5.2 0.00 0.00 0.00 34 1012.5
20260504150203 74 30 1.7 3.5 0.00 0.00 0.00 35 1012.5
20260504150103 74 25 1.7 3.5 0.00 0.00 0.00 35 1012.5